Regional Weather Roundup
Issued by NWS Nashville, TN

Home | Current Version | Previous Version | Text Only | Print | Product List | Glossary On
Versions: 1 2 3 4 5 6 7 8 9 10 11 12 13 14 15 16 17 18 19 20 21 22 23 24 25 26 27 28 29 30 31 32 33 34 35 36 37 38 39 40 41 42 43 44 45 46 47 48 49
000
ASUS44 KOHX 041310
RWROHX
MIDDLE TENNESSEE HOURLY WEATHER ROUNDUP
NATIONAL WEATHER SERVICE NASHVILLE TN
800 AM CDT SAT JUL 04 2015

NOTE: "FAIR" INDICATES FEW OR NO CLOUDS BELOW 12,000 FEET WITH
NO SIGNIFICANT WEATHER AND/OR OBSTRUCTIONS TO VISIBILITY.

* THESE REPORTS ARE NOT UNDER NWS QUALITY CONTROL AND MAY NOT
  REPORT WEATHER SUCH AS PRECIPITATION AND FOG.


TNZ005>011-023>034-057-059-062>066-078-080-041400
...NORTHERN MIDDLE TENNESSEE...

CITY           SKY/WX    TMP DP  RH WIND       PRES   REMARKS
CLARKSVILLE    CLOUDY    72  70  93 CALM      29.98R
CROSSVILLE     CLOUDY    69  65  86 CALM      30.05R FOG
DICKSON          N/A     72  70  94 CALM      29.98R
NASHVILLE      CLOUDY    73  71  93 CALM      30.00R
PORTLAND       CLOUDY   N/A N/A N/A W3        29.98R
ROCKWOOD       CLOUDY    68  67  96 SW7       30.04R
SMYRNA         CLOUDY    74  70  87 W6        30.00R
SPARTA         CLOUDY    72  70  94 SW5       30.01R
$$
TNZ056-058-060-061-075>077-079-093>097-041400
...SOUTHERN MIDDLE TENNESSEE...

CITY           SKY/WX    TMP DP  RH WIND       PRES   REMARKS
COLUMBIA       CLOUDY    70  70 100 SW8       30.00R
MCMINNVILLE    CLOUDY    70  70 100 S3        30.03R
SHELBYVILLE    CLOUDY    72  70  94 SW6         N/A
TULLAHOMA      CLOUDY    68  66  94 SW8       30.03R
WINCHESTER     CLOUDY    70  68  94 W8        30.03R
$$


...KEY TO REMARKS...
VSB - VISIBILITY IN MILES
WCI - WIND CHILL INDEX
HX  - HEAT INDEX



USA.gov is the U.S. government's official web portal to all federal, state and local government web resources and services.